Location: Chervonnoye
(48.6000°N, 34.4000°E)
Time: 14:17:43
(UTC+00:00)

Cosmos 1980 Rocket - Pass Details

Date: 23 November 2020
Orbit: 828 x 851 km, 71.0° (Epoch: 27 January)

Event Time Altitude Azimuth Distance (km) Brightness Sun altitude
Rises 14:31:04 0° 277° (W) 3,372 6.5 -6.2°
Reaches altitude 10° 14:35:11 10° 306° (NW) 2,441 5.0 -6.8°
Maximum altitude 14:37:27 12° 330° (NNW) 2,273 4.5 -7.2°
Drops below altitude 10° 14:39:45 10° 355° (N) 2,445 4.4 -7.5°
Sets 14:43:53 0° 24° (NNE) 3,384 4.9 -8.2°
Enters shadow 14:43:57 - 25° (NNE) 3,400 4.9 -8.2°
